Regional Weather Roundup
Issued by NWS Goodland, KS

Home | Current Version | Previous Version | Graphics & Text | Print | Product List | Glossary On
Versions: 1 2 3 4 5 6 7 8 9 10 11 12 13 14 15 16 17 18 19 20 21 22 23 24 25 26 27 28 29 30 31 32 33 34 35 36 37 38 39 40 41 42 43 44 45 46 47 48 49 50
000
ASUS43 KGLD 271708
RWRGLD

GOODLAND FORECAST AREA HOURLY WEATHER ROUNDUP
NATIONAL WEATHER SERVICE GOODLAND KS
1100 AM MDT MON JUL 27 2015

...OFFICIAL OBSERVATIONS...

CITY           SKY/WX    TMP DP  RH WIND       PRES   REMARKS
GOODLAND KS    MOSUNNY   80  66  62 S21G30    29.91F
HILL CITY KS   SUNNY     88  69  53 S17G26    29.88F
IMPERIAL NEB   SUNNY     85  65  51 S12       29.87F
MCCOOK NEB     MOSUNNY   86  67  52 S18G28    29.87F
AKRON CO         N/A    N/A N/A N/A MISG      29.91F
BURLINGTON CO  MOSUNNY   81  64  56 S17       29.95S
LIMON CO       SUNNY     81  57  43 S12       29.98F
$$

...UNOFFICIAL OBSERVATIONS...

CITY           SKY/WX    TMP DP  RH WIND       PRES   REMARKS
COLBY KS       SUNNY     79  72  78 S18       29.93R
LENORA KS        N/A     84  32  15 MISG        N/A
NORTON KS      SUNNY     86  66  51 S15       29.88S
SHARON SPRINGS   N/A     81  72  74 N12G20      N/A
TRIBUNE KS       N/A    N/A N/A N/A MISG        N/A
KIT CARSON CO    N/A     85  66  53 MISG        N/A
YUMA CO          N/A     83  67  58 CALM        N/A
$$


USA.gov is the U.S. government's official web portal to all federal, state and local government web resources and services.